Regional Weather Roundup
Issued by NWS

Home | Current Version | Previous Version | Graphics & Text | Print | Product List | Glossary On
Versions: 1 2 3 4 5 6 7 8 9 10 11 12 13 14 15 16 17 18 19 20 21 22 23 24 25 26 27
000
ASUS45 KBOU 261007
RWRCO

WEATHER ROUNDUP FOR COLORADO
NATIONAL WEATHER SERVICE DENVER/BOULDER CO
400 AM MDT TUE JUL 26 2016

NOTE: "FAIR" INDICATES FEW OR NO CLOUDS BELOW 12000 FEET WITH NO
SIGNIFICANT WEATHER AND/OR OBSTRUCTIONS TO VISIBILITY.

COZ001>005-013-030-031-261100-
...NORTHWEST COLORADO...

CITY           SKY/WX    TMP DP  RH WIND       PRES   REMARKS
CRAIG          FAIR      56  44  64 SE3       30.24F
HAYDEN         FAIR      63  36  36 CALM      30.27S
MEEKER         FAIR      59  45  59 SE6       30.26F
MOUNT WERNER   NOT AVBL
STEAMBOAT SPGS FAIR      60  39  45 CALM      30.29S
WALDEN         FAIR      54  30  40 NE7       30.39S
$$

COZ006>008-011-261100-
...WEST CENTRAL VALLEYS...

CITY           SKY/WX    TMP DP  RH WIND       PRES   REMARKS
GRAND JUNCTION FAIR      77  43  29 E13       30.12S
MONTROSE       FAIR      71  43  36 SE9       30.24S
EAGLE          FAIR      63  39  42 CALM      30.33S
RIFLE          FAIR      72  42  34 E6        30.20S
DELTA          FAIR      74  41  31 NE7       30.18F
NUCLA          FAIR     N/A N/A N/A SE7       30.27F
$$

COZ017>023-064>068-261100-
...SOUTHWEST COLORADO...

CITY           SKY/WX    TMP DP  RH WIND       PRES   REMARKS
DURANGO        MOCLDY    64  47  53 CALM      30.32S
CORTEZ         CLOUDY    73  47  39 N15G21    30.27R
PAGOSA SPRINGS FAIR      63  46  54 CALM      30.41S
TELLURIDE      FAIR      58  43  57 SE3       30.51S
WOLF CREEK PAS CLOUDY    46  37  71 CALM      30.74S
$$

COZ009-010-012-014-032>034-037-058>063-261100-
...CENTRAL COLORADO...

CITY           SKY/WX    TMP DP  RH WIND       PRES   REMARKS
ASPEN          FAIR      53  40  61 S8        30.40S
BUENA VISTA    FAIR      54  44  68 NW6       30.45S
COPPER MTN     FAIR      54  30  40 SW3       30.73S
BERTHOUD PASS  FAIR      46  32  57 N10G17    30.75S
COTTONWOOD PAS FAIR      59  39  47 E3        30.58S
GUNNISON       FAIR      54  43  66 CALM      30.44S
KREMMLING      MOCLDY    54  43  66 CALM      30.38F
LEADVILLE      FAIR      45  37  73 E7        30.57S
MONARCH PASS   MOCLDY    50  34  53 SW13G22   30.82F
SALIDA         FAIR      60  49  68 W7        30.49S
SUNLIGHT       FAIR      59  32  36 CALM      30.64F
WILKERSON PASS FAIR      48  41  76 W7        30.68S
$$

COZ069>075-261100-
...SAN LUIS VALLEY/SANGRE DE CRISTO MOUNTAINS...

CITY           SKY/WX    TMP DP  RH WIND       PRES   REMARKS
ALAMOSA        CLOUDY    62  50  64 E7        30.38S
LA VETA PASS   FAIR      54  43  66 S9        30.56F
SAGUACHE       MOCLDY    57  45  62 NE8       30.44S
$$

COZ035-036-038>040-261100-
...NORTHERN COLORADO FRONT RANGE...

CITY           SKY/WX    TMP DP  RH WIND       PRES   REMARKS
DENVER INTL AP FAIR      72  45  37 SW17      30.13F
DMNS CITY PARK   N/A     71  45  38 S3        30.13S
AURORA         PTCLDY    70  46  41 S14       30.16F
FRONT RANGE AP NOT AVBL
ERIE MUNI ARPT FAIR      63  52  68 CALM      30.13S
BOULDER MUN AP FAIR      64  48  55 CALM      30.14S
CENTENNIAL     FAIR      71  42  35 S7        30.19S
BROOMFIELD     FAIR      68  50  52 NW7       30.17R
LONGMONT       FAIR      64  52  66 N3        30.14S
$$

COZ041-046-047-076>085-087-088-261100-
...PIKES PEAK/PALMER DIVIDE AND SOUTHERN FOOTHILLS...

CITY           SKY/WX    TMP DP  RH WIND       PRES   REMARKS
COLO. SPRINGS  FAIR      63  48  58 NE6       30.23F
A. F. ACADEMY  FAIR      55  46  73 N7        30.25F
SCHRIEVER AFB  NOT AVBL
ELLICOTT       FAIR     N/A N/A N/A CALM      30.21F
FALCON         FAIR      59  46  60 W6        30.28F
FORT CARSON    FAIR      61  49  64 NW8       30.18F
LIMON          NOT AVBL
MONUMENT HILL  FAIR      61  43  51 SW9       30.30F
TRINIDAD       NOT AVBL
$$

COZ042>045-048>051-090-091-261100-
...NORTHEAST COLORADO...

CITY           SKY/WX    TMP DP  RH WIND       PRES   REMARKS
GREELEY ARPT   FAIR      59  55  88 N9        30.11S
AKRON          FAIR      61  53  75 S13       30.13S
BURLINGTON     FAIR      66  63  90 S15       30.15S
WRAY           FAIR      66  64  94 S5        30.13R
STERLING       FAIR      63  61  94 S7        30.08S
HOLYOKE          N/A     66  63  88 W8        30.12R
FORT MORGAN    FAIR      58  55  88 E8        30.11S
$$

COZ086-089-092>099-261100-
...SOUTHEAST COLORADO...

CITY           SKY/WX    TMP DP  RH WIND       PRES   REMARKS
PUEBLO         FAIR      65  58  78 N3        30.12F
LA JUNTA       FAIR      63  58  83 E9        30.14S
LAMAR          MOCLDY    69  57  65 S7        30.12F
SPRINGFIELD      N/A     64  61  90 S7        30.17R
$$




USA.gov is the U.S. government's official web portal to all federal, state and local government web resources and services.